Regional Weather Roundup
Issued by NWS Charleston, WV

Home | Current Version | Previous Version | Graphics & Text | Print | Product List | Glossary On
Versions: 1 2 3 4 5 6 7 8 9 10 11 12 13 14 15 16 17 18 19 20 21 22 23 24 25 26 27 28 29 30 31 32 33 34 35 36 37 38 39 40 41 42 43 44 45 46 47 48 49 50
000
ASUS41 KRLX 260210
RWRRLX
West Virginia Regional Weather Roundup
National Weather Service Charleston WV
1000 PM EDT TUE APR 25 2017

Note: "fair" indicates few or no clouds below 12,000 feet with no
significant weather and/or obstructions to visibility.

WVZ003-260300-
Northern Panhandle of West Virginia

CITY           SKY/WX    TMP DP  RH WIND       PRES   REMARKS
WHEELING       CLOUDY    56  53  90 E8        29.79S
$$

WVZ009-260300-
Northwest West Virginia

CITY           SKY/WX    TMP DP  RH WIND       PRES   REMARKS
PARKERSBURG    CLEAR     63  53  70 E5        29.78R
$$

WVZ006-260300-
Western West Virginia

CITY           SKY/WX    TMP DP  RH WIND       PRES   REMARKS
HUNTINGTON     CLEAR     63  56  78 E3        29.73R
$$

WVZ015-260300-
West Central West Virginia

CITY           SKY/WX    TMP DP  RH WIND       PRES   REMARKS
CHARLESTON     MOCLDY    62  58  86 CALM      29.74S
$$

WVZ022-031-260300-
North Central West Virginia

CITY           SKY/WX    TMP DP  RH WIND       PRES   REMARKS
CLARKSBURG     CLOUDY    58  50  75 NE3       29.78S
MORGANTOWN     CLOUDY    57  50  77 NE3       29.80S
$$

WVZ025-035-042-045-260300-
Southern West Virginia

CITY           SKY/WX    TMP DP  RH WIND       PRES   REMARKS
BECKLEY        CLOUDY    59  55  87 CALM      29.80R
LOGAN            N/A     63  59  88 NE3       29.76S
BLUEFIELD      CLOUDY    56  55  97 CALM      29.82R FOG
LEWISBURG      CLOUDY    56  52  84 E3        29.80R
$$

WVZ047-260300-
Northern Mountains of West Virginia

CITY           SKY/WX    TMP DP  RH WIND       PRES   REMARKS
ELKINS         CLOUDY    51  47  86 CALM      29.80S
$$

WVZ052-260300-
Eastern Panhandle of West Virginia

CITY           SKY/WX    TMP DP  RH WIND       PRES   REMARKS
MARTINSBURG    CLOUDY    56  54  93 N9        29.79R FOG
PETERSBURG     CLOUDY    56  55  95 CALM      29.82R
$$



USA.gov is the U.S. government's official web portal to all federal, state and local government web resources and services.